TimeCDT,TemperatureF,Dew PointF,Humidity,Sea Level PressureIn,VisibilityMPH,Wind Direction,Wind SpeedMPH,Gust SpeedMPH,PrecipitationIn,Events,Conditions,WindDirDegrees,DateUTC
12:13 AM,55.4,51.8,88,30.10,10.0,East,4.6,-,N/A,,Clear,90,2012-09-01 05:13:00
12:17 AM,55.4,51.8,88,30.09,10.0,East,5.8,-,N/A,,Clear,90,2012-09-01 05:17:00
12:33 AM,55.4,51.8,88,30.10,10.0,East,4.6,-,N/A,,Clear,90,2012-09-01 05:33:00
12:37 AM,55.4,50.0,82,30.10,10.0,East,4.6,-,N/A,,Clear,90,2012-09-01 05:37:00
12:53 AM,55.4,50.0,82,30.10,10.0,ENE,4.6,-,N/A,,Clear,60,2012-09-01 05:53:00
12:57 AM,55.4,50.0,82,30.10,10.0,NE,4.6,-,N/A,,Clear,50,2012-09-01 05:57:00
1:13 AM,55.4,50.0,82,30.10,10.0,NE,4.6,-,N/A,,Clear,50,2012-09-01 06:13:00
1:17 AM,55.4,50.0,82,30.10,10.0,ENE,4.6,-,N/A,,Clear,60,2012-09-01 06:17:00
1:33 AM,55.4,50.0,82,30.10,10.0,ENE,5.8,-,N/A,,Clear,60,2012-09-01 06:33:00
1:37 AM,53.6,50.0,88,30.10,10.0,ENE,5.8,-,N/A,,Clear,60,2012-09-01 06:37:00
1:54 AM,53.6,48.2,82,30.10,10.0,ENE,4.6,-,N/A,,Clear,70,2012-09-01 06:54:00
1:58 AM,53.6,48.2,82,30.10,10.0,East,4.6,-,N/A,,Clear,80,2012-09-01 06:58:00
2:13 AM,55.4,50.0,82,30.10,10.0,East,6.9,-,N/A,,Clear,90,2012-09-01 07:13:00
2:17 AM,55.4,50.0,82,30.10,10.0,East,6.9,-,N/A,,Clear,90,2012-09-01 07:17:00
2:33 AM,55.4,50.0,82,30.10,10.0,East,8.1,-,N/A,,Clear,80,2012-09-01 07:33:00
2:37 AM,55.4,50.0,82,30.10,10.0,East,8.1,-,N/A,,Clear,80,2012-09-01 07:37:00
2:53 AM,55.4,50.0,82,30.10,10.0,East,8.1,-,N/A,,Clear,90,2012-09-01 07:53:00
2:58 AM,57.2,50.0,77,30.09,10.0,East,8.1,-,N/A,,Clear,90,2012-09-01 07:58:00
3:13 AM,57.2,50.0,77,30.09,10.0,East,5.8,-,N/A,,Clear,90,2012-09-01 08:13:00
3:17 AM,57.2,50.0,77,30.09,10.0,East,5.8,-,N/A,,Clear,90,2012-09-01 08:17:00
3:33 AM,55.4,50.0,82,30.09,10.0,East,6.9,-,N/A,,Clear,90,2012-09-01 08:33:00
3:38 AM,55.4,50.0,82,30.09,10.0,East,5.8,-,N/A,,Clear,100,2012-09-01 08:38:00
3:53 AM,55.4,50.0,82,30.10,10.0,East,5.8,-,N/A,,Clear,90,2012-09-01 08:53:00
3:57 AM,55.4,50.0,82,30.09,10.0,East,5.8,-,N/A,,Clear,90,2012-09-01 08:57:00
4:13 AM,55.4,50.0,82,30.10,10.0,East,4.6,-,N/A,,Clear,100,2012-09-01 09:13:00
4:17 AM,55.4,50.0,82,30.09,10.0,ESE,3.5,-,N/A,,Clear,110,2012-09-01 09:17:00
4:34 AM,55.4,48.2,77,30.09,10.0,East,3.5,-,N/A,,Clear,100,2012-09-01 09:34:00
4:37 AM,55.4,48.2,77,30.09,10.0,East,3.5,-,N/A,,Clear,90,2012-09-01 09:37:00
4:53 AM,55.4,48.2,77,30.09,10.0,East,3.5,-,N/A,,Clear,100,2012-09-01 09:53:00
4:58 AM,55.4,48.2,77,30.09,10.0,East,4.6,-,N/A,,Clear,90,2012-09-01 09:58:00
5:13 AM,55.4,48.2,77,30.10,10.0,Calm,Calm,-,N/A,,Clear,0,2012-09-01 10:13:00
5:17 AM,53.6,48.2,82,30.10,10.0,Calm,Calm,-,N/A,,Clear,0,2012-09-01 10:17:00
5:33 AM,53.6,48.2,82,30.09,10.0,Calm,Calm,-,N/A,,Clear,0,2012-09-01 10:33:00
5:37 AM,51.8,48.2,88,30.09,10.0,Calm,Calm,-,N/A,,Clear,0,2012-09-01 10:37:00
5:53 AM,53.6,48.2,82,30.09,10.0,Calm,Calm,-,N/A,,Clear,0,2012-09-01 10:53:00
5:57 AM,53.6,48.2,82,30.09,10.0,Calm,Calm,-,N/A,,Clear,0,2012-09-01 10:57:00
6:13 AM,53.6,48.2,82,30.09,10.0,Calm,Calm,-,N/A,,Clear,0,2012-09-01 11:13:00
6:17 AM,53.6,48.2,82,30.09,10.0,Calm,Calm,-,N/A,,Clear,0,2012-09-01 11:17:00
6:33 AM,53.6,48.2,82,30.09,10.0,Calm,Calm,-,N/A,,Clear,0,2012-09-01 11:33:00
6:38 AM,53.6,48.2,82,30.09,10.0,Calm,Calm,-,N/A,,Clear,0,2012-09-01 11:38:00
6:58 AM,51.8,48.2,88,30.10,10.0,Calm,Calm,-,N/A,,Clear,0,2012-09-01 11:58:00
7:13 AM,51.8,48.2,88,30.10,10.0,Calm,Calm,-,N/A,,Clear,0,2012-09-01 12:13:00
7:17 AM,51.8,48.2,88,30.11,10.0,Calm,Calm,-,N/A,,Clear,0,2012-09-01 12:17:00
7:33 AM,51.8,48.2,88,30.10,10.0,Calm,Calm,-,N/A,,Clear,0,2012-09-01 12:33:00
7:37 AM,51.8,48.2,88,30.10,10.0,Calm,Calm,-,N/A,,Clear,0,2012-09-01 12:37:00
7:53 AM,53.6,51.8,94,30.11,10.0,Calm,Calm,-,N/A,,Clear,0,2012-09-01 12:53:00
7:57 AM,55.4,50.0,82,30.10,10.0,Calm,Calm,-,N/A,,Clear,0,2012-09-01 12:57:00
8:13 AM,57.2,51.8,82,30.10,10.0,Calm,Calm,-,N/A,,Clear,0,2012-09-01 13:13:00
8:18 AM,57.2,51.8,82,30.10,10.0,Calm,Calm,-,N/A,,Clear,0,2012-09-01 13:18:00
8:33 AM,60.8,50.0,68,30.10,10.0,ESE,4.6,-,N/A,,Clear,110,2012-09-01 13:33:00
8:37 AM,60.8,50.0,68,30.10,10.0,ESE,5.8,-,N/A,,Clear,110,2012-09-01 13:37:00
8:53 AM,62.6,51.8,68,30.09,10.0,ESE,8.1,-,N/A,,Clear,110,2012-09-01 13:53:00
8:57 AM,62.6,51.8,68,30.09,10.0,ESE,8.1,-,N/A,,Clear,110,2012-09-01 13:57:00
9:13 AM,64.4,51.8,64,30.10,10.0,SE,8.1,-,N/A,,Clear,130,2012-09-01 14:13:00
9:17 AM,64.4,50.0,59,30.09,10.0,SE,8.1,-,N/A,,Clear,130,2012-09-01 14:17:00
9:34 AM,66.2,51.8,60,30.09,10.0,ESE,8.1,-,N/A,,Clear,120,2012-09-01 14:34:00
9:37 AM,68.0,51.8,56,30.09,10.0,ESE,9.2,-,N/A,,Clear,120,2012-09-01 14:37:00
9:53 AM,69.8,51.8,53,30.10,10.0,SE,8.1,-,N/A,,Clear,130,2012-09-01 14:53:00
9:57 AM,69.8,51.8,53,30.10,10.0,SE,9.2,-,N/A,,Clear,140,2012-09-01 14:57:00
10:13 AM,71.6,53.6,53,30.10,10.0,SE,9.2,-,N/A,,Clear,140,2012-09-01 15:13:00
10:17 AM,71.6,53.6,53,30.09,10.0,SSE,8.1,-,N/A,,Clear,150,2012-09-01 15:17:00
10:33 AM,73.4,53.6,50,30.09,10.0,SSE,9.2,-,N/A,,Clear,150,2012-09-01 15:33:00
10:37 AM,73.4,53.6,50,30.09,10.0,SSE,9.2,-,N/A,,Clear,150,2012-09-01 15:37:00
10:53 AM,73.4,55.4,53,30.09,10.0,SE,10.4,-,N/A,,Clear,130,2012-09-01 15:53:00
10:57 AM,75.2,55.4,50,30.09,10.0,SE,8.1,-,N/A,,Clear,130,2012-09-01 15:57:00
11:13 AM,75.2,55.4,50,30.08,10.0,SE,5.8,-,N/A,,Clear,140,2012-09-01 16:13:00
11:17 AM,77.0,55.4,47,30.08,10.0,ESE,11.5,-,N/A,,Clear,120,2012-09-01 16:17:00
11:33 AM,78.8,57.2,47,30.08,10.0,SE,9.2,-,N/A,,Clear,130,2012-09-01 16:33:00
11:37 AM,78.8,57.2,47,30.08,10.0,SE,10.4,-,N/A,,Clear,140,2012-09-01 16:37:00
11:53 AM,78.8,57.2,47,30.06,10.0,ESE,11.5,-,N/A,,Clear,120,2012-09-01 16:53:00
11:57 AM,78.8,57.2,47,30.06,10.0,SE,9.2,-,N/A,,Clear,140,2012-09-01 16:57:00
12:14 PM,80.6,57.2,45,30.06,7.0,SE,13.8,19.6,N/A,,Clear,130,2012-09-01 17:14:00
12:17 PM,80.6,57.2,45,30.06,10.0,SE,11.5,19.6,N/A,,Clear,140,2012-09-01 17:17:00
12:33 PM,80.6,59.0,48,30.06,10.0,SE,10.4,-,N/A,,Clear,140,2012-09-01 17:33:00
12:37 PM,80.6,59.0,48,30.06,10.0,SE,12.7,17.3,N/A,,Clear,130,2012-09-01 17:37:00
12:53 PM,82.4,59.0,45,30.05,10.0,ESE,13.8,-,N/A,,Clear,120,2012-09-01 17:53:00
12:57 PM,82.4,59.0,45,30.05,10.0,SE,11.5,-,N/A,,Clear,130,2012-09-01 17:57:00
1:13 PM,82.4,59.0,45,30.05,7.0,ESE,11.5,17.3,N/A,,Clear,110,2012-09-01 18:13:00
1:18 PM,84.2,59.0,42,30.05,7.0,ESE,11.5,16.1,N/A,,Clear,110,2012-09-01 18:18:00
1:33 PM,84.2,60.8,45,30.04,7.0,SE,11.5,17.3,N/A,,Clear,140,2012-09-01 18:33:00
1:37 PM,84.2,59.0,42,30.04,7.0,ESE,13.8,18.4,N/A,,Clear,110,2012-09-01 18:37:00
1:53 PM,84.2,59.0,42,30.03,10.0,SE,16.1,19.6,N/A,,Clear,130,2012-09-01 18:53:00
1:57 PM,84.2,57.2,40,30.03,10.0,SE,13.8,19.6,N/A,,Clear,130,2012-09-01 18:57:00
2:14 PM,86.0,57.2,37,30.02,7.0,SE,13.8,21.9,N/A,,Clear,130,2012-09-01 19:14:00
2:18 PM,86.0,57.2,37,30.02,7.0,SE,16.1,20.7,N/A,,Clear,130,2012-09-01 19:18:00
2:33 PM,87.8,57.2,35,30.02,10.0,SE,10.4,17.3,N/A,,Clear,140,2012-09-01 19:33:00
2:37 PM,87.8,55.4,33,30.02,10.0,SE,18.4,21.9,N/A,,Clear,130,2012-09-01 19:37:00
2:54 PM,87.8,55.4,33,30.02,10.0,SE,13.8,20.7,N/A,,Clear,140,2012-09-01 19:54:00
2:57 PM,87.8,55.4,33,30.02,10.0,SE,16.1,20.7,N/A,,Clear,130,2012-09-01 19:57:00
3:14 PM,87.8,53.6,31,30.01,10.0,SE,15.0,19.6,N/A,,Clear,140,2012-09-01 20:14:00
3:17 PM,87.8,55.4,33,30.01,10.0,ESE,17.3,20.7,N/A,,Clear,120,2012-09-01 20:17:00
3:33 PM,87.8,55.4,33,30.00,5.0,SE,13.8,24.2,N/A,,Haze,140,2012-09-01 20:33:00
3:37 PM,87.8,55.4,33,30.00,7.0,SE,12.7,24.2,N/A,,Clear,140,2012-09-01 20:37:00
3:53 PM,87.8,55.4,33,29.99,7.0,SE,12.7,20.7,N/A,,Clear,140,2012-09-01 20:53:00
3:57 PM,87.8,55.4,33,29.99,7.0,SE,17.3,21.9,N/A,,Clear,140,2012-09-01 20:57:00
4:13 PM,87.8,55.4,33,29.99,5.0,SE,13.8,21.9,N/A,,Haze,140,2012-09-01 21:13:00
4:17 PM,87.8,55.4,33,29.99,5.0,SE,15.0,21.9,N/A,,Haze,130,2012-09-01 21:17:00
4:33 PM,87.8,53.6,31,29.98,10.0,SE,16.1,20.7,N/A,,Clear,140,2012-09-01 21:33:00
4:37 PM,87.8,53.6,31,29.98,10.0,SSE,13.8,20.7,N/A,,Clear,150,2012-09-01 21:37:00
4:53 PM,87.8,53.6,31,29.98,10.0,ESE,12.7,24.2,N/A,,Clear,120,2012-09-01 21:53:00
4:57 PM,87.8,53.6,31,29.98,10.0,ESE,15.0,24.2,N/A,,Clear,120,2012-09-01 21:57:00
5:13 PM,86.0,53.6,33,29.98,10.0,SE,15.0,-,N/A,,Clear,130,2012-09-01 22:13:00
5:17 PM,86.0,51.8,31,29.98,10.0,SE,17.3,21.9,N/A,,Clear,130,2012-09-01 22:17:00
5:33 PM,86.0,51.8,31,29.97,10.0,SE,15.0,19.6,N/A,,Clear,130,2012-09-01 22:33:00
5:37 PM,86.0,51.8,31,29.97,10.0,SE,13.8,-,N/A,,Clear,130,2012-09-01 22:37:00
5:53 PM,84.2,51.8,33,29.97,10.0,SE,15.0,24.2,N/A,,Clear,130,2012-09-01 22:53:00
5:57 PM,84.2,51.8,33,29.97,10.0,SE,15.0,24.2,N/A,,Clear,130,2012-09-01 22:57:00
6:14 PM,84.2,50.0,30,29.97,10.0,SE,13.8,19.6,N/A,,Clear,130,2012-09-01 23:14:00
6:17 PM,84.2,50.0,30,29.97,10.0,SE,12.7,19.6,N/A,,Clear,130,2012-09-01 23:17:00
6:33 PM,82.4,50.0,32,29.96,10.0,ESE,12.7,19.6,N/A,,Clear,120,2012-09-01 23:33:00
6:37 PM,82.4,51.8,35,29.96,10.0,ESE,12.7,-,N/A,,Clear,120,2012-09-01 23:37:00
6:53 PM,82.4,53.6,37,29.96,10.0,ESE,12.7,-,N/A,,Clear,120,2012-09-01 23:53:00
6:57 PM,80.6,53.6,39,29.96,7.0,ESE,15.0,-,N/A,,Clear,120,2012-09-01 23:57:00
7:13 PM,80.6,51.8,37,29.96,7.0,ESE,12.7,-,N/A,,Clear,110,2012-09-02 00:13:00
7:17 PM,78.8,51.8,39,29.96,10.0,ESE,13.8,-,N/A,,Clear,120,2012-09-02 00:17:00
7:33 PM,78.8,51.8,39,29.96,10.0,ESE,13.8,19.6,N/A,,Clear,120,2012-09-02 00:33:00
7:37 PM,77.0,51.8,41,29.96,10.0,ESE,15.0,19.6,N/A,,Clear,120,2012-09-02 00:37:00
7:53 PM,75.2,51.8,44,29.96,10.0,ESE,12.7,-,N/A,,Clear,120,2012-09-02 00:53:00
7:57 PM,75.2,51.8,44,29.96,10.0,ESE,12.7,-,N/A,,Clear,120,2012-09-02 00:57:00
8:13 PM,75.2,51.8,44,29.96,10.0,ESE,9.2,-,N/A,,Clear,110,2012-09-02 01:13:00
8:17 PM,73.4,53.6,50,29.96,10.0,ESE,9.2,-,N/A,,Clear,110,2012-09-02 01:17:00
8:33 PM,73.4,53.6,50,29.96,10.0,ESE,10.4,-,N/A,,Clear,120,2012-09-02 01:33:00
8:37 PM,73.4,53.6,50,29.96,10.0,ESE,11.5,-,N/A,,Clear,120,2012-09-02 01:37:00
8:53 PM,73.4,53.6,50,29.96,10.0,ESE,13.8,19.6,N/A,,Clear,120,2012-09-02 01:53:00
8:58 PM,73.4,53.6,50,29.96,10.0,ESE,12.7,18.4,N/A,,Clear,120,2012-09-02 01:58:00
9:13 PM,71.6,51.8,50,29.96,10.0,ESE,13.8,19.6,N/A,,Clear,120,2012-09-02 02:13:00
9:17 PM,71.6,51.8,50,29.96,10.0,SE,12.7,19.6,N/A,,Clear,130,2012-09-02 02:17:00
9:33 PM,71.6,51.8,50,29.96,10.0,ESE,13.8,-,N/A,,Clear,120,2012-09-02 02:33:00
9:37 PM,71.6,51.8,50,29.96,10.0,SE,12.7,-,N/A,,Clear,130,2012-09-02 02:37:00
9:53 PM,69.8,51.8,53,29.97,10.0,SE,11.5,-,N/A,,Clear,130,2012-09-02 02:53:00
9:57 PM,69.8,51.8,53,29.97,10.0,ESE,12.7,-,N/A,,Clear,120,2012-09-02 02:57:00
10:13 PM,69.8,53.6,56,29.96,10.0,SE,12.7,-,N/A,,Clear,130,2012-09-02 03:13:00
10:17 PM,69.8,53.6,56,29.96,10.0,SE,11.5,-,N/A,,Clear,130,2012-09-02 03:17:00
10:33 PM,69.8,53.6,56,29.97,10.0,SE,12.7,-,N/A,,Clear,130,2012-09-02 03:33:00
10:38 PM,69.8,53.6,56,29.97,10.0,SE,12.7,-,N/A,,Clear,130,2012-09-02 03:38:00
10:53 PM,68.0,53.6,60,29.96,10.0,SE,12.7,-,N/A,,Clear,130,2012-09-02 03:53:00
11:13 PM,68.0,53.6,60,29.96,10.0,SE,11.5,-,N/A,,Clear,130,2012-09-02 04:13:00
11:18 PM,66.2,53.6,64,29.96,10.0,SE,12.7,-,N/A,,Clear,130,2012-09-02 04:18:00
11:33 PM,66.2,53.6,64,29.96,10.0,SE,11.5,-,N/A,,Clear,130,2012-09-02 04:33:00
11:53 PM,66.2,53.6,64,29.96,10.0,SE,10.4,-,N/A,,Clear,140,2012-09-02 04:53:00
11:57 PM,66.2,53.6,64,29.96,10.0,SE,10.4,-,N/A,,Clear,130,2012-09-02 04:57:00